Regional Weather Roundup
Issued by NWS State College, PA

Home | Current Version | Previous Version | Text Only | Print | Product List | Glossary On
Versions: 1 2 3 4 5 6 7 8 9 10 11 12 13 14 15 16 17 18 19 20 21 22 23 24 25 26 27 28 29 30 31 32 33 34 35 36 37 38 39 40 41 42 43 44 45 46 47 48 49 50
000
ASUS41 KCTP 012203
RWRCTP

REGIONAL WEATHER ROUNDUP
NATIONAL WEATHER SERVICE STATE COLLEGE PA
500 PM EST SUN MAR 01 2015

Note: "fair" indicates few or no clouds below 12,000 feet with no
significant weather and/or obstructions to visibility.

* = STATION THAT DOES NOT REPORT PRECIPITATION /E.G. RAIN...SNOW...ETC/
    THUNDER OR FOG.

PAZ002>004-007>009-013>016-020>023-029>032-012300-
WESTERN PENNSYLVANIA

CITY           SKY/WX    TMP DP  RH WIND       PRES   REMARKS
ERIE           LGT SNOW  25  21  85 W7        30.23S VSB 3/4
MEADVILLE      SNOW      28  25  88 W3        30.16F
FRANKLIN*      CLOUDY    32  28  86 W5        30.18S VSB 1
NEW CASTLE     LGT SNOW  32  32 100 CALM      30.21S VSB 3/4
BEAVER COUNTY  LGT SNOW  34  32  93 SW6       30.20F VSB 1
BUTLER*        CLOUDY    34  30  86 W8        30.21F
PITTSBURGH INT LGT SNOW  34  33  96 SW5       30.20F FOG
PITTSBURGH     LGT SNOW  33  30  88 S7        30.19F VSB 1
INDIANA*       FOG       34  34 100 W8        30.23S VSB 1
LATROBE        LGT RAIN  36  36 100 SW9       30.22F
WASHINGTON CO* CLOUDY    36  36 100 SW3       30.21F
$$

PAZ004>006-010>012-017>019-024>028-033>037-041-042-045-046-049>053-012300-
CENTRAL PENNSYLVANIA

CITY           SKY/WX    TMP DP  RH WIND       PRES   REMARKS
BRADFORD       SNOW      30  27  88 SW5       30.11F VSB 1/2
DUBOIS         SNOW      32  31  96 SW10      30.14F VSB 1/2
CLEARFIELD     LGT SNOW  29  26  89 CALM      30.18F FOG
JOHNSTOWN      LGT SNOW  34  32  92 SW9       30.14F FOG
ALTOONA        LGT SNOW  29  27  92 SW3       30.21F VSB 1
STATE COLLEGE  LGT SNOW  27  23  86 SW6       30.22F FOG
WILLIAMSPORT   LGT SNOW  26  20  77 E7        30.28F
SELINSGROVE    LGT SNOW  26  23  88 S7        30.30F FOG
FT INDIANTOWN  LGT SNOW  23  21  93 E3        30.32F FOG
CAPITAL CITY   FRZ RAIN  27  24  89 E6        30.32F FOG
HARRISBURG     FRZ RAIN  27  24  89 E5        30.32F FOG
YORK           FRZ RAIN  31  28  89 S3        30.31F FOG
$$

PAZ038>040-043-044-047-048-054-055-060>062-067>071-012300-
EASTERN PENNSYLVANIA

CITY           SKY/WX    TMP DP  RH WIND       PRES   REMARKS
SCRANTON       LGT SNOW  25  20  81 SW5       30.26F VSB 3/4
MOUNT POCONO   LGT SNOW  20  16  84 S6        30.21F FOG     WCI  12
ALLENTOWN      SNOW      25  20  81 CALM      30.35F VSB 1/2
QUAKERTOWN*    CLOUDY    25  21  86 CALM      30.34F
READING        FRZ RAIN  25  21  85 CALM      30.33F
LANCASTER      FRZ RAIN  28  27  96 S3        30.32F FOG
COATESVILLE    LGT RAIN  30  30 100 S5        30.32F
POTTSTOWN      FRZ RAIN  27  27 100 CALM      30.35F FOG
BLUE BELL      CLOUDY    32  30  93 CALM      30.35F
DOYLESTOWN     MIX PCPN  25  25 100 CALM      30.34F FOG
WILLOW GROVE   NOT AVBL
NORTH PHILA    FRZ RAIN  30  24  78 CALM      30.39F
PHILADELPHIA   FRZ RAIN  30  26  85 S7        30.38F FOG
$$


USA.gov is the U.S. government's official web portal to all federal, state and local government web resources and services.